Regional Weather Roundup
Issued by NWS

Home | Current Version | Previous Version | Graphics & Text | Print | Product List | Glossary On
Versions: 1 2 3 4 5 6 7 8 9 10 11 12 13 14 15 16 17 18 19 20 21 22 23 24 25 26 27 28 29 30 31 32 33 34 35 36 37 38 39 40 41 42 43 44 45 46 47 48 49 50
000
ASUS43 KLMK 230810
RWRKY
KENTUCKY REGIONAL WEATHER ROUNDUP
NATIONAL WEATHER SERVICE LOUISVILLE KY
300 AM EST THU FEB 23 2017

NOTE "FAIR" INDICATES FEW OR NO CLOUDS BELOW 12,000 FEET
WITH NO SIGNIFICANT WEATHER AND/OR OBSTRUCTIONS TO VISIBILITY.

KYZ001>023-026-027-061>063-070>075-230900-
WESTERN AND SOUTH CENTRAL KENTUCKY

CITY           SKY/WX    TMP DP  RH WIND       PRES   REMARKS
PADUCAH        CLOUDY    60  54  80 SW6       29.78F
HENDERSON      MOCLDY    57  52  82 SW5       29.78S
OWENSBORO      MOCLDY    57  54  89 S6        29.80S
HOPKINSVILLE   PTCLDY    58  57  95 S8        29.81S
BOWLING GREEN  PTCLDY    58  55  90 S3        29.82S
GLASGOW        PTCLDY    56  56 100 SW3       29.83S
$$

KYZ024-025-028>034-038-045-046-053-230900-
NORTH CENTRAL KENTUCKY

CITY           SKY/WX    TMP DP  RH WIND       PRES   REMARKS
LOUISVILLE/SDF PTCLDY    62  54  74 S7        29.80R
LOUISVILLE/LOU CLEAR     60  54  80 S3        29.80R
FORT KNOX      PTCLDY    56  56  99 SW5       29.79S
$$

KYZ035>037-039>044-047>052-055>060-089>105-230900-
NORTHEAST KENTUCKY

CITY           SKY/WX    TMP DP  RH WIND       PRES   REMARKS
LEXINGTON      CLEAR     57  53  86 S9        29.82F
COVINGTON      CLOUDY    57  55  93 S6        29.79R
FRANKFORT      CLEAR     58  52  80 S9        29.80R
$$

KYZ054-064>069-076>088-106>120-230900-
SOUTHEAST KENTUCKY

CITY           SKY/WX    TMP DP  RH WIND       PRES   REMARKS
JACKSON        CLEAR     53  51  93 S5        29.86F
LONDON         FOG       47  46  97 CALM      29.87S VSB 1/4
SOMERSET       CLEAR     52  52 100 S3        29.88S
MIDDLESBORO    FOG       45  45 100 CALM      29.90S VSB 3/4
MONTICELLO     MOSUNNY   55  54  96 E8        29.87F
$$





USA.gov is the U.S. government's official web portal to all federal, state and local government web resources and services.